Tracking 32418 objects as of 9-Dec-2025
HD Live streaming from Space Station
objects crossing your sky now

STARLINK-31937

Track STARLINK-31937 now!
10-day predictions
STARLINK-31937 is classified as:


NORAD ID: 59871
Int'l Code: 2024-098P
Perigee: 489.6 km
Apogee: 490.7 km
Inclination: 43.0 °
Period: 94.3 minutes
Semi major axis: 6861 km
RCS: Unknown
Launch date: May 24, 2024
Source: United States (US)
Launch site: AIR FORCE EASTERN TEST RANGE (AFETR)
Your satellite tracking list
Your tracking list is empty




NASA's NSSDC Master Catalog

Two Line Element Set (TLE):
1 59871U 24098P   25342.26053643 -.00000482  00000-0 -79993-5 0  9996
2 59871  43.0008  67.3846 0000810 276.0862  83.9898 15.27584765 87944
Source of the keplerian elements: AFSPC